Location: Newark
(47.5833°N, 8.1500°E)
Time: 09:42:02
(UTC+00:00)

Altair - Pass Details

Date: 05 November 2020
Orbit: 1502 x 1682 km, 47.2° (Epoch: 03 December)

Event Time Altitude Azimuth Distance (km) Brightness Sun altitude
Exits shadow 00:45:58 15° 96° (E) 3,321 9.4 -52.6°
Drops below altitude 10° 00:47:50 10° 86° (E) 3,694 9.8 -52.4°
Sets 00:51:52 0° 71° (ENE) 4,704 10.5 -52.0°
